Earlysville, VA

11:02 PM EDT on August 24, 2016 (GMT -0400)
Charlottesville-Albemarle

Weather History for KCHO - August, 2014

Change the Weather History Date:

Friday, August 22, 2014

  Actual Average Record
Temperature  
Mean Temperature 75 °F 74 °F  
Max Temperature 81 °F 85 °F 96 °F (1959)
Min Temperature 68 °F 63 °F 52 °F (1934)
Degree Days  
Heating Degree Days 0 0  
Month to date heating degree days 0 0  
Since 1 June heating degree days 2 12  
Since 1 July heating degree days 0 1  
Cooling Degree Days 10 9  
Month to date cooling degree days 166 210  
Year to date cooling degree days 859 840  
Since 1 June cooling degree days 743 754  
Growing Degree Days 25 (Base 50)    
Moisture  
Dew Point 69 °F    
Average Humidity 80    
Maximum Humidity 90    
Minimum Humidity 69    
Precipitation  
Precipitation 0.41 in 0.09 in 1.05 in (1974)
Month to date precipitation 3.16 2.77  
Year to date precipitation 27.33 27.29  
Sea Level Pressure  
Sea Level Pressure 29.98 in    
Wind  
Wind Speed 3 mph (NE)    
Max Wind Speed 9 mph    
Max Gust Speed 21 mph    
Visibility 9 miles    
Events Rain    
T = Trace of Precipitation, MM = Missing Value Source: NWS Daily Summary

Daily Weather History Graph

Daily Weather History Graph

Search for Another Location

Airport or City:

Trip Planner

Search our weather history database for the weather conditions in past years. The results will help you decide how hot, cold, wet, or windy it might be!

Date:

Astronomy

Aug. 22, 2014 Rise Set
Actual Time 6:34 AM EDT 7:57 PM EDT
Civil Twilight 6:07 AM EDT 8:25 PM EDT
Nautical Twilight 5:34 AM EDT 8:58 PM EDT
Astronomical Twilight 4:59 AM EDT 9:33 PM EDT
Moon 3:56 AM EDT (8/22) 6:04 PM EDT (8/22)
Length of Visible Light 14h 18m
Length of Day
13h 23m
Waning Crescent, 8% of the Moon is Illuminated
Aug 22
Waning Crescent
Aug 25
New
Sep 2
First Quarter
Sep 8
Full
Sep 15
Last Quarter

Hourly Weather History & Observations

Time (EDT) Temp. Heat Index Dew Point Humidity Pressure Visibility Wind Dir Wind Speed Gust Speed Precip Events Conditions
12:53 AM 73.9 °F - 69.1 °F 85% 29.99 in 10.0 mi Variable 3.5 mph - N/A   Overcast
1:53 AM 72.0 °F - 66.9 °F 84% 29.98 in 10.0 mi SSW 4.6 mph - N/A   Clear
2:53 AM 72.0 °F - 66.9 °F 84% 29.98 in 10.0 mi Variable 3.5 mph - N/A   Clear
3:53 AM 72.0 °F - 66.0 °F 81% 29.95 in 10.0 mi Calm Calm - N/A   Clear
5:53 AM 70.0 °F - 66.0 °F 87% 29.97 in 10.0 mi Calm Calm - N/A   Clear
6:53 AM 70.0 °F - 66.9 °F 90% 29.98 in 10.0 mi Calm Calm - N/A   Mostly Cloudy
8:53 AM 71.1 °F - 68.0 °F 90% 30.00 in 10.0 mi South 5.8 mph - 0.00 in Rain Light Rain
9:53 AM 73.0 °F - 68.0 °F 84% 30.00 in 10.0 mi WNW 3.5 mph - 0.00 in Rain Light Rain
10:53 AM 73.0 °F - 70.0 °F 90% 30.00 in 6.0 mi Calm Calm - 0.00 in Rain Light Rain
11:53 AM 73.9 °F - 71.1 °F 91% 30.01 in 6.0 mi Calm Calm - 0.00 in   Overcast
12:53 PM 73.9 °F - 70.0 °F 87% 30.00 in 4.0 mi East 3.5 mph - 0.01 in   Overcast
1:53 PM 75.0 °F - 70.0 °F 84% 29.99 in 10.0 mi Calm Calm - N/A   Overcast
2:53 PM 79.0 °F - 70.0 °F 74% 29.97 in 10.0 mi ENE 3.5 mph - N/A   Scattered Clouds
3:09 PM 80.1 °F 83.2 °F 70.0 °F 71% 29.99 in 10.0 mi NNE 6.9 mph - N/A   Mostly Cloudy
3:24 PM 80.1 °F 83.2 °F 70.0 °F 71% 29.98 in 10.0 mi East 6.9 mph - N/A   Mostly Cloudy
3:31 PM 79.0 °F - 70.0 °F 74% 29.98 in 10.0 mi NE 6.9 mph - N/A   Mostly Cloudy
3:38 PM 79.0 °F - 70.0 °F 74% 29.98 in 10.0 mi ENE 6.9 mph - N/A   Mostly Cloudy
3:53 PM 80.1 °F 83.2 °F 70.0 °F 71% 29.96 in 10.0 mi North - - N/A   Scattered Clouds
5:14 PM 79.0 °F - 70.0 °F 74% 29.97 in 10.0 mi NE 5.8 mph - N/A   Scattered Clouds
5:53 PM 79.0 °F - 70.0 °F 74% 29.95 in 10.0 mi NE 4.6 mph - N/A   Mostly Cloudy
6:53 PM 78.1 °F - 71.1 °F 79% 29.95 in 10.0 mi Calm Calm - N/A   Partly Cloudy
7:53 PM 75.0 °F - 71.1 °F 87% 29.95 in 10.0 mi Calm Calm - N/A   Mostly Cloudy
8:53 PM 73.9 °F - 70.0 °F 87% 29.96 in 10.0 mi Calm Calm - N/A   Partly Cloudy
9:53 PM 73.9 °F - 70.0 °F 87% 29.97 in 10.0 mi NE 4.6 mph - N/A   Mostly Cloudy
10:00 PM 73.9 °F - 70.0 °F 87% 29.99 in 10.0 mi Calm Calm - N/A   Mostly Cloudy
10:08 PM 73.9 °F - 70.0 °F 87% 29.99 in 10.0 mi Calm Calm - N/A   Overcast
10:45 PM 73.9 °F - 70.0 °F 87% 29.99 in 10.0 mi Calm Calm - N/A   Overcast
10:53 PM 73.9 °F - 70.0 °F 87% 29.97 in 10.0 mi NNE 3.5 mph - N/A   Overcast
11:53 PM 73.0 °F - 70.0 °F 90% 29.99 in 4.0 mi North 8.1 mph - 0.03 in Rain Heavy Rain
11:59 PM 72.0 °F - 70.0 °F 93% 30.00 in 1.8 mi North 4.6 mph - 0.09 in Rain Heavy Rain